TimeMDT,TemperatureF,Dew PointF,Humidity,Sea Level PressureIn,VisibilityMPH,Wind Direction,Wind SpeedMPH,Gust SpeedMPH,PrecipitationIn,Events,Conditions,WindDirDegrees,DateUTC
12:15 AM,37.0,28.8,72,30.39,10.0,Calm,Calm,-,N/A,,Clear,0,2012-10-15 06:15:00
12:35 AM,36.9,29.3,74,30.39,10.0,Calm,Calm,-,N/A,,Clear,0,2012-10-15 06:35:00
12:55 AM,33.6,28.6,82,30.39,10.0,Calm,Calm,-,N/A,,Clear,0,2012-10-15 06:55:00
1:15 AM,37.2,29.7,74,30.38,10.0,Calm,Calm,-,N/A,,Clear,0,2012-10-15 07:15:00
1:35 AM,33.3,28.6,83,30.38,10.0,Calm,Calm,-,N/A,,Clear,0,2012-10-15 07:35:00
1:55 AM,35.8,28.6,75,30.38,10.0,Calm,Calm,-,N/A,,Clear,0,2012-10-15 07:55:00
2:15 AM,34.2,28.8,81,30.37,10.0,Calm,Calm,-,N/A,,Clear,0,2012-10-15 08:15:00
2:35 AM,34.0,29.5,84,30.36,10.0,Calm,Calm,-,N/A,,Clear,0,2012-10-15 08:35:00
2:55 AM,35.6,29.5,78,30.36,10.0,Calm,Calm,-,N/A,,Clear,0,2012-10-15 08:55:00
3:15 AM,32.5,29.3,88,30.36,10.0,Calm,Calm,-,N/A,,Clear,0,2012-10-15 09:15:00
3:35 AM,32.4,29.3,88,30.36,10.0,Calm,Calm,-,N/A,,Clear,0,2012-10-15 09:35:00
3:55 AM,36.1,28.6,74,30.35,10.0,Calm,Calm,-,N/A,,Clear,0,2012-10-15 09:55:00
4:15 AM,32.5,29.5,88,30.35,10.0,Calm,Calm,-,N/A,,Clear,0,2012-10-15 10:15:00
4:35 AM,34.3,29.7,83,30.35,10.0,Calm,Calm,-,N/A,,Clear,0,2012-10-15 10:35:00
4:55 AM,32.5,29.3,88,30.35,10.0,Calm,Calm,-,N/A,,Clear,0,2012-10-15 10:55:00
5:15 AM,32.0,28.6,87,30.35,10.0,Calm,Calm,-,N/A,,Clear,0,2012-10-15 11:15:00
5:35 AM,33.3,28.8,84,30.35,10.0,Calm,Calm,-,N/A,,Clear,0,2012-10-15 11:35:00
5:55 AM,32.0,29.7,91,30.35,10.0,Calm,Calm,-,N/A,,Clear,0,2012-10-15 11:55:00
6:15 AM,32.0,28.9,88,30.35,10.0,Calm,Calm,-,N/A,,Clear,0,2012-10-15 12:15:00
6:35 AM,31.3,29.1,92,30.35,10.0,Calm,Calm,-,N/A,,Clear,0,2012-10-15 12:35:00
6:55 AM,33.3,29.7,87,30.35,10.0,Calm,Calm,-,N/A,,Clear,0,2012-10-15 12:55:00
7:15 AM,32.0,30.0,92,30.35,10.0,Calm,Calm,-,N/A,,Clear,0,2012-10-15 13:15:00
7:35 AM,30.7,28.8,92,30.35,10.0,Calm,Calm,-,N/A,,Clear,0,2012-10-15 13:35:00
7:55 AM,33.1,30.0,89,30.36,10.0,Calm,Calm,-,N/A,,Clear,0,2012-10-15 13:55:00
8:15 AM,35.8,31.8,86,30.36,10.0,Calm,Calm,-,N/A,,Clear,0,2012-10-15 14:15:00
8:35 AM,38.7,32.9,80,30.37,10.0,Calm,Calm,-,N/A,,Clear,0,2012-10-15 14:35:00
8:55 AM,42.4,32.5,68,30.38,10.0,Calm,Calm,-,N/A,,Clear,0,2012-10-15 14:55:00
9:15 AM,45.1,32.2,60,30.38,10.0,Calm,Calm,-,N/A,,Clear,0,2012-10-15 15:15:00
9:55 AM,49.1,30.9,50,30.37,10.0,Calm,Calm,-,N/A,,Clear,0,2012-10-15 15:55:00
10:15 AM,51.6,30.9,45,30.36,10.0,Calm,Calm,-,N/A,,Clear,0,2012-10-15 16:15:00
10:35 AM,54.3,30.4,40,30.35,10.0,East,3.5,-,N/A,,Clear,90,2012-10-15 16:35:00
10:55 AM,55.6,30.2,38,30.34,10.0,Calm,Calm,-,N/A,,Clear,0,2012-10-15 16:55:00
11:15 AM,55.6,30.2,38,30.34,10.0,SW,3.5,-,N/A,,Clear,230,2012-10-15 17:15:00
11:35 AM,57.2,29.7,35,30.32,10.0,SSW,4.6,-,N/A,,Clear,200,2012-10-15 17:35:00
11:55 AM,57.7,28.4,33,30.32,10.0,SW,4.6,-,N/A,,Clear,220,2012-10-15 17:55:00
12:15 PM,58.8,27.7,31,30.31,10.0,SSW,5.8,-,N/A,,Clear,210,2012-10-15 18:15:00
12:35 PM,59.4,28.2,31,30.30,10.0,South,3.5,-,N/A,,Clear,190,2012-10-15 18:35:00
12:55 PM,61.5,28.4,29,30.29,10.0,SSE,8.1,-,N/A,,Clear,160,2012-10-15 18:55:00
1:15 PM,61.5,28.0,28,30.28,10.0,South,9.2,-,N/A,,Clear,170,2012-10-15 19:15:00
1:35 PM,62.4,27.5,27,30.26,10.0,South,4.6,-,N/A,,Clear,180,2012-10-15 19:35:00
1:55 PM,63.3,26.2,25,30.25,10.0,SSW,12.7,16.1,N/A,,Clear,200,2012-10-15 19:55:00
2:15 PM,63.0,25.3,24,30.24,10.0,SSE,5.8,-,N/A,,Clear,150,2012-10-15 20:15:00
2:35 PM,64.2,23.7,21,30.23,10.0,SSW,9.2,16.1,N/A,,Clear,210,2012-10-15 20:35:00
2:55 PM,65.1,23.5,21,30.22,10.0,WSW,10.4,-,N/A,,Clear,240,2012-10-15 20:55:00
3:15 PM,64.8,21.4,19,30.22,10.0,SSW,8.1,-,N/A,,Clear,210,2012-10-15 21:15:00
3:35 PM,65.3,21.7,19,30.21,10.0,SSW,5.8,-,N/A,,Clear,200,2012-10-15 21:35:00
3:55 PM,65.7,22.1,19,30.20,10.0,SW,9.2,-,N/A,,Clear,220,2012-10-15 21:55:00
4:15 PM,66.2,21.2,18,30.20,10.0,SW,9.2,-,N/A,,Clear,230,2012-10-15 22:15:00
4:35 PM,66.4,19.8,17,30.19,10.0,SW,8.1,-,N/A,,Clear,220,2012-10-15 22:35:00
4:55 PM,66.6,18.7,16,30.19,10.0,SSW,8.1,16.1,N/A,,Clear,210,2012-10-15 22:55:00
5:15 PM,65.7,18.1,16,30.19,10.0,SSW,10.4,-,N/A,,Clear,200,2012-10-15 23:15:00
5:35 PM,65.3,19.2,17,30.19,10.0,WSW,10.4,16.1,N/A,,Clear,240,2012-10-15 23:35:00
5:55 PM,64.9,18.9,17,30.18,10.0,SW,11.5,-,N/A,,Clear,230,2012-10-15 23:55:00
6:15 PM,63.7,18.5,18,30.18,10.0,WSW,8.1,-,N/A,,Clear,240,2012-10-16 00:15:00
6:35 PM,62.2,19.6,19,30.18,10.0,WSW,4.6,-,N/A,,Clear,240,2012-10-16 00:35:00
6:55 PM,59.0,21.4,23,30.19,10.0,Calm,Calm,-,N/A,,Clear,0,2012-10-16 00:55:00
7:15 PM,50.7,23.2,34,30.19,10.0,Calm,Calm,-,N/A,,Clear,0,2012-10-16 01:15:00
7:35 PM,50.9,24.1,35,30.20,10.0,Calm,Calm,-,N/A,,Clear,0,2012-10-16 01:35:00
7:55 PM,46.8,26.4,45,30.20,10.0,Calm,Calm,-,N/A,,Clear,0,2012-10-16 01:55:00
8:15 PM,50.2,23.7,36,30.20,10.0,NE,3.5,-,N/A,,Clear,40,2012-10-16 02:15:00
8:35 PM,46.9,25.3,43,30.20,10.0,NNE,4.6,-,N/A,,Clear,30,2012-10-16 02:35:00
8:55 PM,46.9,25.3,43,30.20,10.0,NNE,3.5,-,N/A,,Clear,30,2012-10-16 02:55:00
9:15 PM,48.2,24.6,40,30.21,10.0,NNE,5.8,-,N/A,,Clear,30,2012-10-16 03:15:00
9:35 PM,45.3,25.2,45,30.21,10.0,NNE,6.9,-,N/A,,Clear,30,2012-10-16 03:35:00
9:55 PM,46.4,24.8,43,30.21,10.0,NNE,5.8,-,N/A,,Clear,30,2012-10-16 03:55:00
10:15 PM,47.1,23.9,40,30.21,10.0,NE,3.5,-,N/A,,Clear,50,2012-10-16 04:15:00
10:35 PM,42.3,25.2,51,30.21,10.0,Calm,Calm,-,N/A,,Clear,0,2012-10-16 04:35:00
10:55 PM,42.3,25.2,51,30.21,10.0,Calm,Calm,-,N/A,,Clear,0,2012-10-16 04:55:00
11:15 PM,42.4,24.8,50,30.20,10.0,NE,3.5,-,N/A,,Clear,40,2012-10-16 05:15:00
11:35 PM,38.8,25.0,58,30.20,10.0,Calm,Calm,-,N/A,,Clear,0,2012-10-16 05:35:00
11:55 PM,39.0,25.0,57,30.19,10.0,Calm,Calm,-,N/A,,Clear,0,2012-10-16 05:55:00